Bei Facebook empfehlenBei Twitter postenGoogle plusPinterest

Das Wetter im Erzgebirge am 07.02.2017

Wetter und Klima am 07.02.2017 Holzhau im Erzgebirge (630m ü.NN)
Letzte gemessene Temperatur und Uhrzeit der Messung23:45:00 Uhr-3.40 °C
Temperatur (Maximum / Höchstwert) und Uhrzeit der Messung12:15:00 Uhr1.30 °C
Temperatur (Minimum / Tiefstwert) und Uhrzeit der Messung08:00:00-3.90 °C
Errechneter Absolutwert der Temperaturschwankungen zwischen Tmin und Tmax des Tages5.20 K
Errechnete Tagesmitteltemperatur-2.37604 °C
Gesamt - Niederschlag des Tages (in flüssiger Form)0.00 Liter / m²
Luftdruck (Maximum / Höchstwert) und Zeitpunkt der Messung23:45:00 Uhr1015.70 hPa
Luftdruck (Minimum / Tiefstwert) und Zeitpunkt der Messung14:30:00 Uhr1014.10 hPa
Errechneter Absolutwert der Luftdruckschwankungen des Tages1.60 hPa
Höchste gemessene Windgeschwindigkeit und Uhrzeit der Messung21:30:00 Uhr3.60 km/h
Errechnete Windhäufigkeit in Relation zu den Messwerten des Tages7.29167 %
Niedrigste Windkühle (Windchill) und Zeitpunkt der Messung08:00:00 Uhr-3.90 °C
Taupunkt (Maximum / Höchstwert) und Uhrzeit der Messung11:45:00 Uhr-1.70 °C
Taupunkt (Minimum / Tiefstwert) und Uhrzeit der Messung08:15:00-5.20 °C
Anzahl der automatisch eingelesenen Messwerte 96

Detaillierte Wetter- und Klima- Messwerte für den 07.02.2017 in Holzhau im Erzgebirge (630m ü.NN)
ZeitTemperaturLuftdruckRel. LuftfeuchteWindWindrichtungWindchillTaupunktNiederschlag l/m²
23:45:00-3.40 °C1015.70 hPa89.00 %-5.10 °C 
23:30:00-3.40 °C1015.70 hPa89.00 %-5.10 °C 
23:15:00-3.40 °C1015.60 hPa89.00 %1.44 km/hSSO-3.40 °C-5.10 °C 
23:00:00-3.40 °C1015.50 hPa89.00 %-5.10 °C 
22:45:00-3.40 °C1015.40 hPa89.00 %-5.10 °C 
22:30:00-3.30 °C1015.40 hPa89.00 %-5.00 °C 
22:15:00-3.30 °C1015.50 hPa89.00 %-5.00 °C 
22:00:00-3.20 °C1015.50 hPa89.00 %2.52 km/hSSO-3.20 °C-4.90 °C 
21:45:00-3.20 °C1015.60 hPa88.00 %-5.10 °C 
21:30:00-3.20 °C1015.50 hPa88.00 %3.60 km/hSSO-3.20 °C-5.10 °C 
21:15:00-3.20 °C1015.30 hPa88.00 %-5.10 °C 
21:00:00-3.10 °C1015.30 hPa88.00 %-5.00 °C 
20:45:00-3.10 °C1015.30 hPa88.00 %-5.00 °C 
20:30:00-3.10 °C1015.30 hPa88.00 %-5.00 °C 
20:15:00-3.00 °C1015.20 hPa87.00 %-5.10 °C 
20:00:00-3.00 °C1015.10 hPa87.00 %-5.10 °C 
19:45:00-3.00 °C1015.20 hPa87.00 %-5.10 °C 
19:30:00-3.00 °C1015.20 hPa87.00 %-5.10 °C 
19:15:00-2.90 °C1015.10 hPa87.00 %-5.00 °C 
19:00:00-2.90 °C1015.20 hPa87.00 %-5.00 °C 
18:45:00-2.90 °C1015.20 hPa86.00 %-5.10 °C 
18:30:00-2.80 °C1015.20 hPa86.00 %-5.10 °C 
18:15:00-2.80 °C1015.10 hPa86.00 %-5.10 °C 
18:00:00-2.70 °C1015.20 hPa85.00 %-5.10 °C 
17:45:00-2.70 °C1014.90 hPa85.00 %-5.10 °C 
17:30:00-2.60 °C1014.80 hPa85.00 %-5.00 °C 
17:15:00-2.40 °C1014.70 hPa84.00 %-5.00 °C 
17:00:00-2.20 °C1014.80 hPa83.00 %-5.00 °C 
16:45:00-1.90 °C1014.80 hPa83.00 %-4.70 °C 
16:30:00-1.70 °C1014.70 hPa82.00 %-4.70 °C 
16:15:00-1.30 °C1014.50 hPa82.00 %-4.30 °C 
16:00:00-1.20 °C1014.40 hPa82.00 %-4.20 °C 
15:45:00-1.10 °C1014.30 hPa82.00 %-4.10 °C 
15:30:00-1.10 °C1014.30 hPa81.00 %-4.30 °C 
15:15:00-0.80 °C1014.30 hPa80.00 %1.44 km/hSSO-0.80 °C-4.20 °C 
15:00:00-0.40 °C1014.20 hPa79.00 %1.44 km/hSSO-0.40 °C-4.00 °C 
14:45:00-0.10 °C1014.20 hPa79.00 %0.72 km/hSSO-0.10 °C-3.70 °C 
14:30:000.20 °C1014.10 hPa79.00 %-3.00 °C 
14:15:000.10 °C1014.10 hPa79.00 %-3.10 °C 
14:00:000.10 °C1014.20 hPa79.00 %-3.10 °C 
13:45:000.30 °C1014.10 hPa79.00 %-2.90 °C 
13:30:000.70 °C1014.20 hPa79.00 %2.52 km/hOSO0.70 °C-2.50 °C 
13:15:000.80 °C1014.30 hPa80.00 %-2.20 °C 
13:00:000.50 °C1014.40 hPa79.00 %-2.70 °C 
12:45:000.90 °C1014.30 hPa79.00 %-2.30 °C 
12:30:001.10 °C1014.40 hPa78.00 %-2.30 °C 
12:15:001.30 °C1014.40 hPa80.00 %-1.80 °C 
12:00:001.20 °C1014.40 hPa80.00 %-1.90 °C 
11:45:001.20 °C1014.60 hPa81.00 %-1.70 °C 
11:30:000.60 °C1014.60 hPa82.00 %-2.10 °C 
11:15:000.30 °C1014.50 hPa83.00 %-2.20 °C 
11:00:00-0.10 °C1014.90 hPa85.00 %-2.60 °C 
10:45:00-0.50 °C1014.80 hPa87.00 %-2.60 °C 
10:30:00-1.10 °C1014.80 hPa88.00 %-3.00 °C 
10:15:00-1.60 °C1014.90 hPa88.00 %-3.50 °C 
10:00:00-1.90 °C1014.80 hPa89.00 %-3.70 °C 
09:45:00-2.20 °C1014.90 hPa90.00 %-3.80 °C 
09:30:00-2.60 °C1014.80 hPa91.00 %-4.00 °C 
09:15:00-2.90 °C1014.90 hPa91.00 %-4.30 °C 
09:00:00-3.30 °C1014.90 hPa92.00 %-4.50 °C 
08:45:00-3.50 °C1014.90 hPa91.00 %-4.90 °C 
08:30:00-3.60 °C1014.70 hPa91.00 %-5.00 °C 
08:15:00-3.80 °C1014.80 hPa91.00 %-5.20 °C 
08:00:00-3.90 °C1014.70 hPa92.00 %-5.10 °C 
07:45:00-3.90 °C1014.80 hPa92.00 %-5.10 °C 
07:30:00-3.90 °C1014.70 hPa92.00 %-5.10 °C 
07:15:00-3.90 °C1014.60 hPa92.00 %-5.10 °C 
07:00:00-3.90 °C1014.60 hPa92.00 %-5.10 °C 
06:45:00-3.90 °C1014.60 hPa92.00 %-5.10 °C 
06:30:00-3.80 °C1014.90 hPa92.00 %-5.00 °C 
06:15:00-3.80 °C1014.70 hPa92.00 %-5.00 °C 
06:00:00-3.70 °C1014.70 hPa92.00 %-4.90 °C 
05:45:00-3.60 °C1014.80 hPa92.00 %-4.80 °C 
05:30:00-3.50 °C1014.90 hPa92.00 %-4.70 °C 
05:15:00-3.40 °C1014.80 hPa92.00 %-4.60 °C 
05:00:00-3.50 °C1014.90 hPa92.00 %-4.70 °C 
04:45:00-3.50 °C1014.40 hPa92.00 %-4.70 °C 
04:30:00-3.50 °C1014.60 hPa92.00 %-4.70 °C 
04:15:00-3.40 °C1014.40 hPa92.00 %-4.60 °C 
04:00:00-3.40 °C1014.70 hPa92.00 %-4.60 °C 
03:45:00-3.40 °C1014.60 hPa92.00 %-4.60 °C 
03:30:00-3.40 °C1014.70 hPa92.00 %-4.60 °C 
03:15:00-3.30 °C1014.60 hPa92.00 %-4.50 °C 
03:00:00-3.40 °C1014.70 hPa92.00 %-4.60 °C 
02:45:00-3.40 °C1014.60 hPa92.00 %-4.60 °C 
02:30:00-3.30 °C1014.80 hPa92.00 %-4.50 °C 
02:15:00-3.30 °C1014.90 hPa92.00 %-4.50 °C 
02:00:00-3.30 °C1014.90 hPa92.00 %-4.50 °C 
01:45:00-3.40 °C1015.00 hPa93.00 %-4.50 °C 
01:30:00-3.40 °C1015.10 hPa93.00 %-4.50 °C 
01:15:00-3.40 °C1015.00 hPa93.00 %-4.50 °C 
01:00:00-3.40 °C1015.00 hPa93.00 %-4.50 °C 
00:45:00-3.40 °C1015.10 hPa92.00 %-4.60 °C 
00:30:00-3.30 °C1015.00 hPa92.00 %-4.50 °C 
00:15:00-3.30 °C1015.00 hPa92.00 %-4.50 °C 
00:00:00-3.20 °C1014.90 hPa92.00 %-4.40 °C 

Permanenter Link zu dieser Seite: Wetter im Erzgebirge am 07.02.2017
Performance-Info: Die Erstellung der Seite / Statistik(en) / Tabelle(n) erforderte 5 Datenbankserver-Abfrage(n) und dauerte 103 Millisekunden. (Dieser Messwert ist von der Gesamt-Auslastung des Servers abhängig.)
Erzgebirge - Wetter | Erzgebirge - Wetter (Mobilgeräte) | Komplette Klimadatenbank